Volver al catálogo

THORAD AGENA D DEB

ActivoLEO
NORAD 4738·DEBRIS·🇺🇸 United States

Lanzado Apr 8, 1970 desde Vandenberg Space Force Base

Loading…

Próximos Pases (próximas 24 horas)

TLE

ActualizadoSource: Space-Track

Época: Sep 14, 2026, 07:12 UTC

1 04738U 70025CM  26257.30060148  .00001475  00000-0  74754-3 0  9997
2 04738 100.1087 273.6374 0046506  31.9252 328.4722 14.17411204852969

Sigue THORAD AGENA D DEB en tiempo real con AllMySat

Download on the App Store